[[[{"header":{"parameterUnit":"kt","parameterCategory":2,"dx":1,"dy":1,"la1":30.253999710083008,"la2":30.299108505249023,"lo1":-89.0895004272461,"lo2":-89.04439544677734,"nx":28,"ny":28,"refTime":"2022-10-16T21:00:00:Z","depth":0,"parameterNumber":1,"parameterNumberName":"U-component_of_WINDS"},"data":[1.5735,1.5744,1.5756,1.5773,1.5786,1.58,1.5809,1.5822,1.5835,1.5854,1.5867,1.5881,1.5899,1.5918,1.5934,1.5939,1.5945,1.5941,1.5948,1.5955,1.5956,1.5958,1.5956,1.5943,1.5943,1.594,1.594,1.594,1.5744,1.5757,1.5768,1.5787,1.5798,1.581,1.5826,1.5834,1.5846,1.5863,1.5875,1.5893,1.5909,1.5928,1.5945,1.5951,1.5957,1.5955,1.5954,1.5957,1.5965,1.5962,1.595,1.595,1.595,1.595,1.595,1.595,1.5762,1.5767,1.5785,1.5797,1.581,1.5823,1.583,1.5845,1.5857,1.5874,1.5886,1.5899,1.5918,1.5943,1.5954,1.5966,1.597,1.5971,1.5971,1.5971,1.597,1.5974,1.5969,1.597,1.597,1.597,1.597,0,1.5779,1.5788,1.5799,1.5814,1.5823,1.5836,1.5849,1.5854,1.5876,1.5885,1.5898,1.5908,1.5928,1.5943,1.5961,1.5972,1.5983,1.5985,1.5986,1.598,1.5974,1.5978,1.599,1.5984,1.5985,1.5985,1.5985,1.5985,1.5798,1.5802,1.5825,1.5831,1.584,1.585,1.5858,1.5877,1.5885,1.5905,1.5908,1.5923,1.5935,1.5955,1.5972,1.5987,1.5992,1.5989,1.5994,1.599,1.5992,1.5991,1.5993,1.5987,1.5987,1.5986,1.5986,0,1.5808,1.5825,1.5834,1.5855,1.5861,1.5864,1.5883,1.5889,1.5901,1.5911,1.5914,1.5935,1.5947,1.5964,1.5982,1.5991,1.5999,1.6004,1.5994,1.5996,1.5995,1.5995,1.5988,1.5989,1.6003,1.6003,1.6003,0,1.5831,1.5834,1.5859,1.5863,1.5869,1.5886,1.5892,1.5903,1.5917,1.5924,1.5939,1.5946,1.5966,1.5976,1.5989,1.5998,1.6001,1.6008,1.6011,1.6006,1.6006,1.601,1.601,1.6018,1.6018,1.6018,1.6018,0,1.5844,1.5861,1.5867,1.5874,1.5895,1.5899,1.5908,1.5923,1.593,1.5943,1.5948,1.5961,1.5968,1.5979,1.5994,1.5997,1.6006,1.6013,1.6013,1.6012,1.6012,1.6012,1.6003,1.6018,1.6018,1.6018,1.6018,0,1.5864,1.5875,1.5881,1.59,1.5904,1.5908,1.5921,1.5929,1.5943,1.5951,1.596,1.5971,1.598,1.5986,1.5999,1.5999,1.6006,1.6013,1.6013,1.6013,1.6019,1.6012,1.6003,1.6002,1.6017,1.6017,1.6017,0,1.5875,1.5885,1.5899,1.5905,1.5912,1.5928,1.5933,1.5945,1.5955,1.5963,1.5974,1.5983,1.5991,1.5995,1.6,1.6012,1.6012,1.6012,1.6024,1.6025,1.602,1.6012,1.6006,1.6003,1.6017,1.6017,1.6017,0,1.5884,1.5909,1.5909,1.5916,1.5933,1.5938,1.5944,1.5955,1.596,1.597,1.5976,1.5988,1.5995,1.6001,1.6011,1.6014,1.6013,1.602,1.6021,1.6019,1.6018,1.6013,1.6012,1.6018,1.6018,1.6018,1.6017,0,1.5911,1.5917,1.5917,1.5931,1.5938,1.5941,1.5956,1.5961,1.597,1.5979,1.5987,1.5999,1.601,1.6013,1.602,1.6023,1.6024,1.603,1.6036,1.603,1.603,1.603,1.6035,1.6035,1.6036,1.6036,0,0,1.5918,1.5926,1.5939,1.5944,1.595,1.5964,1.5967,1.5974,1.5988,1.5992,1.5996,1.6013,1.6021,1.6029,1.6028,1.6032,1.6034,1.6034,1.6033,1.6032,1.6032,1.6032,1.6032,1.6036,1.6036,1.6036,1.6036,0,1.593,1.5938,1.5939,1.5947,1.596,1.5969,1.597,1.5984,1.5989,1.5996,1.6007,1.6013,1.6025,1.6033,1.6039,1.6035,1.6042,1.6037,1.603,1.6034,1.6034,1.6033,1.6033,1.6032,1.6037,1.6037,1.6037,0,1.5942,1.5952,1.5954,1.5966,1.5974,1.5979,1.5989,1.5994,1.5998,1.6012,1.6017,1.6025,1.6037,1.6041,1.6044,1.6047,1.6048,1.6049,1.6048,1.6048,1.6053,1.6052,1.6051,1.6061,1.6061,1.6061,0,0,1.595,1.5955,1.597,1.5969,1.5974,1.5987,1.599,1.5998,1.6007,1.6011,1.602,1.6029,1.6037,1.6041,1.6048,1.6051,1.6055,1.6052,1.605,1.6049,1.6049,1.6053,1.6053,1.6061,1.6061,1.6061,0,0,1.5954,1.5971,1.5977,1.5978,1.5987,1.6001,1.6001,1.6008,1.6016,1.6017,1.6029,1.6032,1.6037,1.6043,1.6043,1.605,1.6055,1.6056,1.6045,1.6044,1.6043,1.6041,1.6053,0,0,0,0,0,1.5972,1.5969,1.5974,1.5976,1.5991,1.5998,1.6,1.6011,1.6015,1.6015,1.6024,1.6031,1.6046,1.6047,1.6049,1.6048,1.6062,1.6062,1.6062,1.6049,1.6048,1.6047,0,0,0,0,0,0,1.5973,1.5975,1.5974,1.5988,1.5991,1.5999,1.6008,1.6011,1.6015,1.6017,1.6029,1.6031,1.604,1.6046,1.6048,1.6047,1.6053,1.6062,1.6062,1.6062,1.6049,1.6048,1.6047,0,0,0,0,0,1.5974,1.5976,1.5995,1.5988,1.5991,1.6004,1.6008,1.6011,1.6014,1.6027,1.603,1.6021,1.604,1.6042,1.6047,1.6046,1.6052,1.6052,1.6062,1.6062,1.6062,1.6048,0,0,0,0,0,0,1.5974,1.5978,1.5996,1.5998,1.5989,1.6004,1.6007,1.601,1.6025,1.6027,1.602,1.6021,1.604,1.6041,1.6043,1.6045,1.6051,1.6051,1.6052,1.6062,1.6062,1.6062,0,0,0,0,0,0,1.5977,1.5979,1.5997,1.5998,1.5999,1.6004,1.6006,1.6012,1.6025,1.6017,1.6018,1.6021,1.6037,1.6041,1.6042,1.605,1.605,1.6051,1.6051,1.6051,1.6062,1.6062,0,0,0,0,0,0,1.5978,1.598,1.5998,1.5999,1.6,1.6015,1.6009,1.6023,1.6026,1.6016,1.6026,1.6026,1.6036,1.6038,1.6041,1.6049,1.605,1.605,1.6051,1.6051,1.6051,0,0,0,0,0,0,0,1.5979,1.5965,1.5989,1.5999,1.6001,1.601,1.601,1.601,1.6026,1.6026,1.6026,1.6026,1.6047,1.6048,1.6048,1.6048,0,0,1.605,1.605,0,0,0,0,0,0,0,0,1.5964,1.5965,1.5989,1.5989,1.5989,1.601,1.601,1.601,1.6026,1.6026,1.6026,1.6026,1.6047,1.6048,1.6048,0,0,0,0,0,0,0,0,0,0,0,0,0,0,0,1.5989,1.5989,0,1.601,1.601,1.601,1.6026,1.6026,1.6026,1.6026,1.6047,1.6048,1.6048,0,0,0,0,0,0,0,0,0,0,0,0,0,0,0,0,0,0,0,0,0,0,0,0,0,0,0,0,0,0,0,0,0,0,0,0,0,0,0,0,0,0,0,0,0,0,0,0,0,0,0,0,0,0,0,0,0,0,0,0,0,0,0,0,0,0,0,0,0]}],[{"header":{"parameterUnit":"kt","parameterCategory":2,"dx":1,"dy":1,"la1":30.253999710083008,"la2":30.299108505249023,"lo1":-89.0895004272461,"lo2":-89.04439544677734,"nx":28,"ny":28,"refTime":"2022-10-16T21:00:00:Z","depth":0,"parameterNumber":2,"parameterNumberName":"V-component_of_WINDS"},"data":[-13.2588,-13.2831,-13.2859,-13.3147,-13.3219,-13.3419,-13.3499,-13.3604,-13.3693,-13.3931,-13.4072,-13.4119,-13.4214,-13.4385,-13.4535,-13.4552,-13.4614,-13.4682,-13.469,-13.4367,-13.4323,-13.4282,-13.4228,-13.4695,-13.4696,-13.5022,-13.5025,-13.5027,-13.2352,-13.2427,-13.2588,-13.2761,-13.2898,-13.285,-13.2981,-13.3098,-13.3276,-13.3387,-13.3527,-13.3736,-13.3903,-13.3976,-13.4139,-13.4249,-13.4234,-13.4292,-13.4284,-13.43,-13.3955,-13.3898,-13.4302,-13.4302,-13.4302,-13.4302,-13.4301,-13.4301,-13.1928,-13.2072,-13.2193,-13.2367,-13.2461,-13.2575,-13.2716,-13.2773,-13.2926,-13.3104,-13.3101,-13.3302,-13.3414,-13.3621,-13.3694,-13.3849,-13.3788,-13.3857,-13.3875,-13.3893,-13.3911,-13.344,-13.3877,-13.3875,-13.3874,-13.3874,-13.3873,0,-13.1626,-13.164,-13.1794,-13.1958,-13.2085,-13.2213,-13.2333,-13.242,-13.245,-13.2575,-13.2758,-13.2866,-13.3079,-13.325,-13.3407,-13.3469,-13.3427,-13.3424,-13.3472,-13.3478,-13.3465,-13.3476,-13.2914,-13.3411,-13.3407,-13.3404,-13.3402,-13.34,-13.1202,-13.1366,-13.1504,-13.1609,-13.1681,-13.1849,-13.1954,-13.1968,-13.2078,-13.2225,-13.2349,-13.2522,-13.2661,-13.2944,-13.3002,-13.3159,-13.314,-13.3327,-13.3163,-13.3162,-13.3144,-13.3135,-13.3152,-13.3359,-13.3364,-13.3369,-13.3372,0,-13.0961,-13.1002,-13.1264,-13.1382,-13.1417,-13.1587,-13.1686,-13.1827,-13.1865,-13.2065,-13.2112,-13.2169,-13.2345,-13.2374,-13.2578,-13.2587,-13.2864,-13.284,-13.2826,-13.2823,-13.2995,-13.2979,-13.3545,-13.362,-13.3135,-13.3139,-13.3143,0,-13.0615,-13.0829,-13.0878,-13.1028,-13.1265,-13.1274,-13.1507,-13.1562,-13.166,-13.1817,-13.1775,-13.1923,-13.1935,-13.2086,-13.2099,-13.2329,-13.2367,-13.2387,-13.2388,-13.2392,-13.239,-13.2449,-13.2427,-13.2382,-13.2379,-13.2377,-13.2374,0,-13.0234,-13.0509,-13.0752,-13.0821,-13.0967,-13.108,-13.1145,-13.1253,-13.1354,-13.1488,-13.1554,-13.1709,-13.1794,-13.1913,-13.1929,-13.1817,-13.221,-13.2059,-13.2231,-13.2231,-13.2317,-13.2312,-13.2806,-13.2371,-13.237,-13.2369,-13.2368,0,-12.9961,-13.0102,-13.0447,-13.0567,-13.0639,-13.0797,-13.0953,-13.1095,-13.1211,-13.1231,-13.1336,-13.131,-13.1513,-13.1361,-13.1641,-13.149,-13.1575,-13.1613,-13.1626,-13.1646,-13.1475,-13.1752,-13.2219,-13.2269,-13.1664,-13.1658,-13.1653,0,-12.9515,-12.9873,-12.9884,-13.021,-13.038,-13.0324,-13.0499,-13.0603,-13.0644,-13.0791,-13.0834,-13.1,-13.0893,-13.0948,-13.1083,-13.1133,-13.1328,-13.1107,-13.1315,-13.1323,-13.1289,-13.1719,-13.1783,-13.2114,-13.1578,-13.1586,-13.1592,0,-12.9173,-12.9349,-12.9407,-12.9486,-12.9628,-12.9768,-12.9969,-13.0137,-13.0235,-13.0355,-13.0524,-13.0756,-13.0685,-13.0777,-13.0771,-13.091,-13.1196,-13.0813,-13.0816,-13.0882,-13.1542,-13.1602,-13.1658,-13.1161,-13.117,-13.1177,-13.1532,0,-12.8754,-12.8938,-12.9094,-12.9268,-12.9381,-12.9586,-12.9619,-12.9732,-12.9717,-12.9755,-13.0001,-13.0091,-13.0258,-13.0327,-13.0311,-13.062,-13.0572,-13.0493,-13.0347,-13.0629,-13.0746,-13.0794,-13.0169,-13.0165,-13.0162,-13.0159,0,0,-12.8317,-12.8581,-12.8584,-12.8781,-12.8877,-12.8814,-12.903,-12.9114,-12.9286,-12.9353,-12.9272,-12.9613,-12.9689,-12.9983,-13.0073,-13.014,-13.0198,-13.0097,-13.0494,-13.0531,-13.0566,-13.0691,-13.0741,-13.0153,-13.0151,-13.015,-13.0149,0,-12.8171,-12.8256,-12.847,-12.8559,-12.8691,-12.8721,-12.8773,-12.889,-12.8924,-12.9165,-12.9106,-12.9256,-12.9527,-12.9617,-12.9697,-13.0063,-13.0009,-13.0111,-13.03,-13.0458,-13.05,-13.0537,-13.0669,-13.0716,-13.014,-13.0141,-13.0141,0,-12.7842,-12.7931,-12.8037,-12.8252,-12.8337,-12.8511,-12.8367,-12.8556,-12.8684,-12.86,-12.884,-12.8893,-12.9013,-12.9287,-12.941,-12.934,-12.9836,-12.9683,-12.9706,-12.972,-12.9874,-12.9925,-12.9969,-12.9379,-12.9376,-12.9374,0,0,-12.771,-12.7881,-12.7978,-12.8223,-12.828,-12.8328,-12.8422,-12.8417,-12.8529,-12.8573,-12.8641,-12.8749,-12.8906,-12.901,-12.9158,-12.9455,-12.9479,-12.9588,-12.9624,-12.9654,-12.9684,-12.9845,-12.9895,-12.9363,-12.9363,-12.9363,0,0,-12.7647,-12.7771,-12.7736,-12.8025,-12.8135,-12.8245,-12.8392,-12.8351,-12.8489,-12.8468,-12.8464,-12.8493,-12.8749,-12.8802,-12.866,-12.9106,-12.8961,-12.8996,-12.9062,-12.9108,-12.9144,-12.9125,-12.8522,0,0,0,0,0,-12.7514,-12.7756,-12.7723,-12.7776,-12.8045,-12.8263,-12.8297,-12.8301,-12.82,-12.8316,-12.8366,-12.8301,-12.8725,-12.8599,-12.865,-12.8808,-12.9229,-12.9253,-12.9275,-12.9431,-12.9479,-12.9519,0,0,0,0,0,0,-12.7535,-12.76,-12.7717,-12.7837,-12.7897,-12.8254,-12.8083,-12.8091,-12.8187,-12.8172,-12.8294,-12.8305,-12.8311,-12.8573,-12.8619,-12.877,-12.8506,-12.9238,-12.9259,-12.9277,-12.9448,-12.9487,-12.952,0,0,0,0,0,-12.7552,-12.7604,-12.8034,-12.7833,-12.7886,-12.795,-12.8074,-12.8079,-12.8153,-12.823,-12.8239,-12.8148,-12.8315,-12.8353,-12.86,-12.8749,-12.8475,-12.8492,-12.9252,-12.9267,-12.9282,-12.9467,0,0,0,0,0,0,-12.7564,-12.7609,-12.8044,-12.806,-12.7742,-12.793,-12.7959,-12.8069,-12.8205,-12.8217,-12.8082,-12.8069,-12.8321,-12.835,-12.838,-12.8742,-12.8449,-12.8466,-12.8477,-12.9264,-12.9276,-12.9287,0,0,0,0,0,0,-12.7581,-12.7623,-12.8053,-12.7938,-12.7941,-12.7911,-12.7938,-12.8146,-12.8207,-12.8049,-12.8042,-12.8075,-12.8274,-12.8348,-12.8371,-12.8697,-12.8429,-12.8446,-12.8457,-12.8465,-12.9274,-12.9284,0,0,0,0,0,0,-12.7598,-12.7635,-12.7934,-12.7936,-12.7938,-12.8117,-12.8095,-12.8369,-12.8113,-12.8044,-12.809,-12.8079,-12.8275,-12.8298,-12.8366,-12.8682,-12.8693,-12.843,-12.8441,-12.8449,-12.8454,0,0,0,0,0,0,0,-12.7613,-12.737,-12.795,-12.7935,-12.7936,-12.8209,-12.8213,-12.8217,-12.8111,-12.8102,-12.8092,-12.8084,-12.8334,-12.8352,-12.8371,-12.8671,0,0,-12.8428,-12.8436,0,0,0,0,0,0,0,0,-12.7354,-12.7366,-12.7951,-12.7954,-12.7957,-12.8209,-12.8213,-12.8216,-12.8109,-12.8102,-12.8094,-12.8087,-12.8339,-12.8354,-12.8369,0,0,0,0,0,0,0,0,0,0,0,0,0,0,0,-12.7951,-12.7954,0,-12.821,-12.8213,-12.8215,-12.8108,-12.8102,-12.8096,-12.809,-12.8343,-12.8355,-12.8368,0,0,0,0,0,0,0,0,0,0,0,0,0,0,0,0,0,0,0,0,0,0,0,0,0,0,0,0,0,0,0,0,0,0,0,0,0,0,0,0,0,0,0,0,0,0,0,0,0,0,0,0,0,0,0,0,0,0,0,0,0,0,0,0,0,0,0,0,0]}]]]